Location: La Coruña
(43.3623°N, 8.4115°W)
Time: 16:27:16
(UTC+01:00)

STARLINK-1092 - Pass Details

Date: 19 January 2020
Orbit: 348 x 351 km, 53.0° (Epoch: 18 February)

Event Time Altitude Azimuth Distance (km) Brightness Sun altitude
Rises 19:06:00 0° 241° (WSW) 2,152 9.0 -7.2°
Reaches altitude 10° 19:08:01 10° 245° (WSW) 1,314 7.3 -7.5°
Maximum altitude 19:10:55 62° 327° (NNW) 401 3.0 -8.0°
Enters shadow 19:13:43 11° 49° (NE) 1,276 4.9 -8.5°
